星链-32851 (STARLINK-32851)

导读 | 豆包AI

STARLINK-32851是美国SpaceX公司星链(Starlink)项目的卫星,于2025年1月24日发射入轨,是该批次星链组网卫星成员之一。作为星链星座的组成部分,它运行在近地轨道,旨在为全球偏远地区提供低延迟、高速宽带互联网服务,属于SpaceX大规模卫星互联网组网计划的一部分,助力星链完成全球覆盖的部署目标。

基本信息
目录编号:
62810
目录名称:
STARLINK-32851
国际标识:
2025-018E
轨道中心:
EARTH
卫星名称:
星链-32851
卫星全名:
星链-32851 (STARLINK-32851)
卫星状态:
在轨 (已飞行460 天)
发射日期:
2025-01-24 UTC
国别 :
美国 (US)
星等 :
--
轨道信息
数据来源 国际轨道数据
星历时间: 2026-04-29T11:23:30+0800
18小时前
查看轨道信息
半长轴: 6853.275km
偏心率: 0.0002441
轨道倾角: 53.159°
近地点辐角 97.744°
升交点赤经 75.190°
平近点角 262.384°
近地点: 473.465km
远地点: 476.811km
周期: 94.104分钟
每日圈数: 15.30226
详细信息
固有亮度:
5
最大亮度:
2.5
卫星平台:
Starlink V1.0
覆盖范围:
全球
运营商:
太空探索技术公司
运营商所在国:
美国
制造商(研发单位):
太空探索技术公司
制造商所在国:
美国
使用方式:
暂无
卫星简介
Starlink 计划是 SpaceX 推出的全球卫星互联网项目,通过发射低轨道卫星,为全球尤其是偏远地区提供高速、低延迟的互联网服务。自 2019 年起,Starlink 已部署数千颗卫星,旨在缩小全球数字鸿沟,推动互联网普及。该项目还为军事、航空等行业提供通信支持,带来广泛经济效益。
2D轨道图
3D轨道图
轨道高度分析图
轨道倾角分析图
轨道综合分析图
查看轨道综合分析图